Meteo Giornale » Osservazioni meteo Gran Bretagna » Boscombe Down

ore: 17:50 - Osservazioni Meteo Boscombe Down
Lat. 51° 10' N Lon. 1° 45' W Alt. 124 metri s.l.m.

molto_nuvoloso Europe/London

17 °C

Molto Nuvoloso

Temp. 24 Ore

13 °C

19 °C

Nord/NOvest

18.5 Km/h

Dew point 12 °C

Umidità 72 %

Visibilità  10 Km

Il sole sorge alle ore 06:47

Il sole tramonta alle ore 19:14

Data e Ora Cielo e Fenomeni T °C DP °C Um. % Pres. hPa Vis. km Vento km/h
Oggi h: 17:50 molto_nuvoloso Molto Nuvoloso 17 12 72 1016 10 N/NO 18.5
Oggi h: 16:50 molto_nuvoloso Molto Nuvoloso 18 12 67 1015 10 O/NO 20.3
Oggi h: 14:50 nuvoloso Nuvoloso 19 12 63 1015 10 N/NO 14.8
Oggi h: 12:50 sereno Sereno 19 11 59 1015 10 O/NO 16.7
Oggi h: 11:50 poco_nuvoloso Poco Nuvoloso 18 12 67 1015 10 NO 13
Oggi h: 09:50 molto_nuvoloso Molto Nuvoloso 15 12 82 1014 10 NO 14.8
Oggi h: 08:50 molto_nuvoloso Molto Nuvoloso 14 12 87 1014 10 N/NO 11.1
Oggi h: 07:50 molto_nuvoloso Molto Nuvoloso 13 12 93 1014 10 NO 14.8
Oggi h: 06:50 molto_nuvoloso Molto Nuvoloso 13 12 93 1013 10 NO 14.8
Oggi h: 05:50 coperto_pioggia Pioggia Debole 13 13 100 1013 6 O/NO 11.1
Oggi h: 04:50 foschia Foschia 13 12 93 1012 6 N 3.7
Oggi h: 03:50 molto_nuvoloso Molto Nuvoloso 13 12 93 1012 10 N 3.7
Oggi h: 02:50 foschia Foschia 13 12 93 1013 5 O/NO 11.1
Oggi h: 01:50 coperto Coperto 13 12 93 1013 10 NO 7.4
Oggi h: 00:50 molto_nuvoloso Molto Nuvoloso 14 12 87 1013 10 N 5.5
Ieri h: 23:50 poco_nuvoloso Poco Nuvoloso 14 12 87 1013 9 N 3.7
Ieri h: 22:50 poco_nuvoloso Poco Nuvoloso 14 13 93 1013 10 N 1.8
Ieri h: 21:50 poco_nuvoloso Poco Nuvoloso 15 13 87 1013 10 S 7.4
Ieri h: 20:50 poco_nuvoloso Poco Nuvoloso 16 12 77 1013 10 S 7.4
Ieri h: 19:50 molto_nuvoloso Molto Nuvoloso 17 11 67 1013 10 SE 7.4